CWOP Weather Reports


Display with metric or nautical units.
time (UTC)temp
F
wind
direction
speed
MPH
gust
MPH
rain 1hr
in
rain 24hr
in
rain mn
in
humidity
%
barometer
mb
20260505211010 75 163 6.0 16.0 0.00 0.00 0.00 36 1014.3
20260505210506 74 237 5.0 15.0 0.00 0.00 0.00 35 1014.3
20260505210016 75 225 7.0 12.0 0.00 0.00 0.00 36 1014.3
20260505205506 75 155 5.0 15.0 0.00 0.00 0.00 37 1014.3
20260505205009 75 127 5.0 15.0 0.00 0.00 0.00 39 1014.2
20260505204536 75 126 5.0 17.0 0.00 0.00 0.00 37 1014.2
20260505204009 74 91 4.0 17.0 0.00 0.00 0.00 41 1014.3
20260505203514 75 126 4.0 14.0 0.00 0.00 0.00 42 1014.3
20260505203026 75 136 6.0 19.0 0.00 0.00 0.00 43 1014.4
20260505202507 75 89 6.0 19.0 0.00 0.00 0.00 40 1014.4
20260505202007 75 222 4.0 14.0 0.00 0.00 0.00 39 1014.4
20260505201524 75 178 5.0 14.0 0.00 0.00 0.00 41 1014.4
20260505201011 75 79 7.0 14.0 0.00 0.00 0.00 38 1014.4
20260505200512 75 173 6.0 15.0 0.00 0.00 0.00 40 1014.5
20260505200026 75 184 8.0 15.0 0.00 0.00 0.00 40 1014.6
20260505195507 75 246 2.0 14.0 0.00 0.00 0.00 43 1014.6
20260505195008 75 178 5.0 14.0 0.00 0.00 0.00 41 1014.5
20260505194517 76 103 4.0 15.0 0.00 0.00 0.00 40 1014.5
20260505194011 76 165 7.0 15.0 0.00 0.00 0.00 41 1014.6
20260505193509 75 166 2.0 20.0 0.00 0.00 0.00 43 1014.8
20260505193025 75 189 3.0 20.0 0.00 0.00 0.00 40 1015.0
20260505193015 75 185 4.0 20.0 0.00 0.00 0.00 40 1015.0
20260505192504 75 109 3.0 13.0 0.00 0.00 0.00 41 1015.1
20260505192003 75 113 8.0 13.0 0.00 0.00 0.00 39 1015.3
20260505191507 75 117 5.0 16.0 0.00 0.00 0.00 40 1015.3
20260505191004 75 178 8.0 16.0 0.00 0.00 0.00 39 1015.3
20260505190503 75 157 4.0 11.0 0.00 0.00 0.00 42 1015.4
20260505190009 75 126 4.0 13.0 0.00 0.00 0.00 42 1015.6
20260505185503 75 178 5.0 13.0 0.00 0.00 0.00 38 1015.5
20260505185007 74 191 2.0 13.0 0.00 0.00 0.00 37 1015.5
20260505184507 74 197 7.0 23.0 0.00 0.00 0.00 36 1015.5
20260505184006 74 235 8.0 23.0 0.00 0.00 0.00 35 1015.7
20260505183508 74 213 6.0 12.0 0.00 0.00 0.00 32 1015.9
20260505183011 74 229 6.0 15.0 0.00 0.00 0.00 36 1015.8
20260505182505 75 192 7.0 12.0 0.00 0.00 0.00 35 1016.0
20260505182006 74 98 2.0 10.0 0.00 0.00 0.00 37 1015.9
20260505181504 74 227 2.0 12.0 0.00 0.00 0.00 40 1016.0
20260505181003 74 178 3.0 12.0 0.00 0.00 0.00 37 1016.1
20260505180504 74 190 7.0 12.0 0.00 0.00 0.00 41 1016.1
20260505180007 74 238 4.0 11.0 0.00 0.00 0.00 38 1016.1
20260505175503 74 115 5.0 9.0 0.00 0.00 0.00 37 1016.2
20260505175005 74 198 5.0 10.0 0.00 0.00 0.00 39 1016.3
20260505174510 73 190 7.0 11.0 0.00 0.00 0.00 39 1016.4
20260505174005 73 118 5.0 12.0 0.00 0.00 0.00 40 1016.4
20260505173501 74 108 5.0 10.0 0.00 0.00 0.00 41 1016.4
20260505173007 73 125 3.0 17.0 0.00 0.00 0.00 40 1016.4
20260505172502 73 144 4.0 17.0 0.00 0.00 0.00 41 1016.5
20260505172008 73 199 6.0 10.0 0.00 0.00 0.00 41 1016.5
20260505171513 73 198 3.0 11.0 0.00 0.00 0.00 40 1016.6
20260505171006 73 170 7.0 11.0 0.00 0.00 0.00 41 1016.6
20260505170508 72 157 6.0 11.0 0.00 0.00 0.00 41 1016.6
20260505170011 73 218 2.0 11.0 0.00 0.00 0.00 40 1016.7
20260505165502 73 223 6.0 10.0 0.00 0.00 0.00 40 1016.8
20260505165003 73 190 4.0 9.0 0.00 0.00 0.00 40 1016.9
20260505164508 73 158 4.0 8.0 0.00 0.00 0.00 41 1016.8
20260505164006 73 202 4.0 8.0 0.00 0.00 0.00 41 1016.9
20260505163507 73 192 4.0 6.0 0.00 0.00 0.00 44 1016.8
20260505163016 72 191 2.0 7.0 0.00 0.00 0.00 40 1016.7
20260505162505 72 96 3.0 7.0 0.00 0.00 0.00 42 1016.7
20260505162006 72 190 4.0 11.0 0.00 0.00 0.00 43 1016.7
20260505161504 72 218 7.0 11.0 0.00 0.00 0.00 44 1016.7
20260505161002 72 213 5.0 9.0 0.00 0.00 0.00 46 1016.6
20260505160505 72 89 4.0 7.0 0.00 0.00 0.00 44 1016.6
20260505153008 70 262 3.0 7.0 0.00 0.00 0.00 47 1017.0
20260505152505 70 126 1.0 4.0 0.00 0.00 0.00 45 1017.1
20260505152012 69 194 2.0 5.0 0.00 0.00 0.00 46 1017.1
20260505151516 70 213 3.0 4.0 0.00 0.00 0.00 48 1017.1
20260505151009 70 302 1.0 2.0 0.00 0.00 0.00 47 1017.0
20260505150507 70 312 1.0 2.0 0.00 0.00 0.00 46 1017.0
20260505140507 62 115 2.0 4.0 0.00 0.00 0.00 71 1017.4
20260505125008 56 38 0.0 3.0 0.00 0.00 0.00 80 1016.9
20260505124518 56 68 0.0 3.0 0.00 0.00 0.00 82 1016.9
20260505124006 56 151 0.0 2.0 0.00 0.00 0.00 82 1016.8
20260505123508 55 40 0.0 2.0 0.00 0.00 0.00 83 1016.8
20260505123018 54 57 0.0 2.0 0.00 0.00 0.00 84 1016.7
20260505122510 54 65 0.0 2.0 0.00 0.00 0.00 85 1016.7
20260505122007 53 65 0.0 2.0 0.00 0.00 0.00 86 1016.7
20260505121524 52 40 0.0 2.0 0.00 0.00 0.00 88 1016.7
20260505121003 51 26 0.0 0.0 0.00 0.00 0.00 89 1016.7
20260505120508 50 42 0.0 0.0 0.00 0.00 0.00 89 1016.7
20260505120020 49 54 0.0 0.0 0.00 0.00 0.00 92 1016.7
20260505115507 48 54 0.0 2.0 0.00 0.00 0.00 93 1016.6
20260505115012 47 54 0.0 2.0 0.00 0.00 0.00 94 1016.4
20260505114519 46 113 0.0 2.0 0.00 0.00 0.00 95 1016.4
20260505114009 46 66 0.0 2.0 0.00 0.00 0.00 95 1016.3
20260505113503 45 97 0.0 2.0 0.00 0.00 0.00 95 1016.3
20260505113012 44 97 0.0 1.0 0.00 0.00 0.00 95 1016.3
20260505112507 43 97 0.0 1.0 0.00 0.00 0.00 94 1016.3
20260505112007 43 126 0.0 0.0 0.00 0.00 0.00 94 1016.3
20260505111529 43 126 0.0 2.0 0.00 0.00 0.00 94 1016.3
20260505111006 42 126 0.0 2.0 0.00 0.00 0.00 94 1016.2
20260505110508 42 338 0.0 2.0 0.00 0.00 0.00 93 1016.2
20260505102006 43 38 0.0 2.0 0.00 0.00 0.00 92 1016.3
20260505101513 43 38 0.0 2.0 0.00 0.00 0.00 93 1016.2
20260505101008 43 38 1.0 2.0 0.00 0.00 0.00 93 1016.1
20260505100507 43 38 0.0 2.0 0.00 0.00 0.00 93 1016.1
20260505100011 43 59 0.0 2.0 0.00 0.00 0.00 92 1016.1
20260505095503 43 288 0.0 2.0 0.00 0.00 0.00 92 1016.1
20260505095005 43 15 1.0 2.0 0.00 0.00 0.00 93 1016.0
20260505094513 44 36 1.0 2.0 0.00 0.00 0.00 92 1016.1
20260505094006 44 67 0.0 1.0 0.00 0.00 0.00 92 1016.1
20260505093507 44 128 0.0 2.0 0.00 0.00 0.00 93 1016.0
20260505093027 44 248 0.0 2.0 0.00 0.00 0.00 92 1016.1
20260505092508 44 62 1.0 2.0 0.00 0.00 0.00 92 1016.1
20260505092004 44 53 0.0 2.0 0.00 0.00 0.00 90 1016.2
20260505091513 44 53 0.0 2.0 0.00 0.00 0.00 92 1016.2
20260505091004 44 276 0.0 3.0 0.00 0.00 0.00 91 1016.3
20260505090504 44 45 2.0 3.0 0.00 0.00 0.00 92 1016.3
20260505090012 44 51 0.0 2.0 0.00 0.00 0.00 91 1016.3
20260505085507 44 44 0.0 2.0 0.00 0.00 0.00 90 1016.3
20260505085013 44 44 1.0 2.0 0.00 0.00 0.00 91 1016.2
20260505084524 44 63 0.0 2.0 0.00 0.00 0.00 91 1016.2
20260505084004 45 63 0.0 2.0 0.00 0.00 0.00 91 1016.2
20260505083509 45 136 0.0 2.0 0.00 0.00 0.00 91 1016.3
20260505083005 45 136 0.0 2.0 0.00 0.00 0.00 91 1016.1
20260505082503 45 60 1.0 2.0 0.00 0.00 0.00 91 1016.1
20260505082004 45 60 0.0 2.0 0.00 0.00 0.00 92 1016.2
20260505081517 45 96 0.0 2.0 0.00 0.00 0.00 92 1016.2
20260505081009 45 52 1.0 2.0 0.00 0.00 0.00 91 1016.2
20260505080508 45 349 0.0 3.0 0.00 0.00 0.00 90 1016.2
20260505080004 45 61 1.0 3.0 0.00 0.00 0.00 93 1016.2
20260505075504 45 184 2.0 3.0 0.00 0.00 0.00 92 1016.2
20260505075005 45 55 1.0 2.0 0.00 0.00 0.00 91 1016.1
20260505074511 45 56 0.0 2.0 0.00 0.00 0.00 90 1016.2
20260505074004 45 56 0.0 2.0 0.00 0.00 0.00 90 1016.1
20260505073505 45 56 0.0 2.0 0.00 0.00 0.00 90 1016.2
20260505073019 45 56 1.0 2.0 0.00 0.00 0.00 90 1016.2
20260505072508 45 275 0.0 2.0 0.00 0.00 0.00 89 1016.2
20260505072003 46 36 0.0 2.0 0.00 0.00 0.00 89 1016.2
20260505071504 46 36 0.0 1.0 0.00 0.00 0.00 89 1016.2
20260505071008 46 36 0.0 2.0 0.00 0.00 0.00 89 1016.2
20260505070506 46 36 1.0 2.0 0.00 0.00 0.00 89 1016.2
20260505070013 46 36 0.0 2.0 0.00 0.00 0.00 88 1016.2
20260505065507 46 36 0.0 2.0 0.00 0.00 0.00 88 1016.1
20260505065012 46 38 2.0 2.0 0.00 0.00 0.00 90 1016.1
20260505064523 46 61 0.0 0.0 0.00 0.00 0.00 89 1016.2
20260505064003 46 61 0.0 1.0 0.00 0.00 0.00 88 1016.1
20260505063504 46 61 0.0 2.0 0.00 0.00 0.00 87 1016.1
20260505063014 46 61 1.0 2.0 0.00 0.00 0.00 85 1016.1
20260505062506 47 55 1.0 2.0 0.00 0.00 0.00 87 1016.2
20260505062007 47 54 0.0 2.0 0.00 0.00 0.00 85 1016.2
20260505061522 47 54 0.0 2.0 0.00 0.00 0.00 87 1016.2
20260505061006 47 54 0.0 0.0 0.00 0.00 0.00 86 1016.2
20260505060511 47 54 0.0 0.0 0.00 0.00 0.00 85 1016.3
20260505060003 47 54 0.0 0.0 0.00 0.00 0.00 84 1016.3
20260505055503 48 54 0.0 0.0 0.00 0.00 0.00 85 1016.3
20260505055003 48 54 0.0 1.0 0.00 0.00 0.00 84 1016.3
20260505054514 48 54 0.0 2.0 0.00 0.00 0.00 83 1016.3
20260505054008 48 54 0.0 2.0 0.00 0.00 0.00 83 1016.4
20260505053510 48 54 0.0 2.0 0.00 0.00 0.00 81 1016.4
20260505053020 48 85 0.0 3.0 0.00 0.00 0.00 82 1016.3
20260505052508 49 86 2.0 3.0 0.00 0.00 0.00 81 1016.4
20260505052004 49 123 0.0 3.0 0.00 0.00 0.00 81 1016.3
20260505051508 49 82 1.0 2.0 0.00 0.00 0.00 81 1016.3
20260505051004 49 69 0.0 1.0 0.00 0.00 0.00 80 1016.3
20260505050504 50 69 0.0 2.0 0.00 0.00 0.00 81 1016.3
20260505041540 53 119 0.0 2.0 0.00 0.00 0.00 75 1016.3
20260505041007 53 123 0.0 2.0 0.00 0.00 0.00 76 1016.3
20260505040510 53 123 0.0 2.0 0.00 0.00 0.00 75 1016.3
20260505040027 53 155 0.0 2.0 0.00 0.00 0.00 75 1016.3
20260505035502 53 155 0.0 2.0 0.00 0.00 0.00 75 1016.3
20260505035007 53 121 1.0 2.0 0.00 0.00 0.00 75 1016.3
20260505034516 53 109 0.0 2.0 0.00 0.00 0.00 74 1016.4
20260505034007 53 109 0.0 2.0 0.00 0.00 0.00 74 1016.4
20260505033507 53 109 0.0 2.0 0.00 0.00 0.00 74 1016.4
20260505033024 53 109 1.0 2.0 0.00 0.00 0.00 74 1016.4
20260505032517 53 142 1.0 2.0 0.00 0.00 0.00 77 1016.4
20260505032011 53 94 0.0 2.0 0.00 0.00 0.00 75 1016.4
20260505031521 53 87 0.0 2.0 0.00 0.00 0.00 75 1016.5
20260505031004 54 87 0.0 2.0 0.00 0.00 0.00 75 1016.4
20260505030504 53 87 0.0 2.0 0.00 0.00 0.00 75 1016.5
20260505030019 53 92 0.0 0.0 0.00 0.00 0.00 75 1016.5
20260505025514 53 92 0.0 0.0 0.00 0.00 0.00 75 1016.5
20260505025010 53 92 0.0 0.0 0.00 0.00 0.00 75 1016.4
20260505024526 54 92 0.0 2.0 0.00 0.00 0.00 75 1016.4
20260505024010 54 92 0.0 2.0 0.00 0.00 0.00 74 1016.4
20260505023503 54 92 0.0 2.0 0.00 0.00 0.00 73 1016.3
20260505023015 55 107 1.0 3.0 0.00 0.00 0.00 73 1016.3
20260505022507 55 101 2.0 3.0 0.00 0.00 0.00 72 1016.3
20260505022007 55 103 2.0 3.0 0.00 0.00 0.00 72 1016.3
20260505021524 56 110 1.0 2.0 0.00 0.00 0.00 71 1016.3
20260505021008 57 96 1.0 3.0 0.00 0.00 0.00 69 1016.3
20260505020510 57 111 1.0 3.0 0.00 0.00 0.00 68 1016.2
20260505020033 57 111 1.0 3.0 0.00 0.00 0.00 68 1016.1
20260505015506 57 96 1.0 3.0 0.00 0.00 0.00 68 1016.1
20260505015005 57 105 1.0 2.0 0.00 0.00 0.00 67 1016.0
20260505014521 58 108 2.0 2.0 0.00 0.00 0.00 65 1015.9
20260505014007 59 112 2.0 2.0 0.00 0.00 0.00 63 1015.8
20260505013506 60 98 0.0 2.0 0.00 0.00 0.00 62 1015.7
20260505013027 60 98 0.0 0.0 0.00 0.00 0.00 62 1015.8
20260505012507 61 98 0.0 0.0 0.00 0.00 0.00 59 1015.7
20260505012010 62 98 0.0 2.0 0.00 0.00 0.00 60 1015.7
20260505011513 63 98 0.0 2.0 0.00 0.00 0.00 58 1015.7
20260505011006 64 119 0.0 2.0 0.00 0.00 0.00 56 1015.7
20260505010506 65 124 1.0 3.0 0.00 0.00 0.00 53 1015.6
20260505010022 65 160 0.0 4.0 0.00 0.00 0.00 52 1015.6
20260505005507 66 163 0.0 4.0 0.00 0.00 0.00 52 1015.5
20260505005011 66 189 2.0 4.0 0.00 0.00 0.00 51 1015.5
20260505004526 66 173 2.0 7.0 0.00 0.00 0.00 51 1015.5
20260505004008 67 173 1.0 7.0 0.00 0.00 0.00 51 1015.5
20260505003507 67 150 2.0 5.0 0.00 0.00 0.00 50 1015.3
20260505003013 67 113 2.0 5.0 0.00 0.00 0.00 51 1015.2
20260505002508 67 136 2.0 6.0 0.00 0.00 0.00 51 1015.2
20260505002007 67 119 2.0 6.0 0.00 0.00 0.00 51 1015.2
20260505001524 68 129 2.0 6.0 0.00 0.00 0.00 51 1015.1
20260505001010 68 110 1.0 5.0 0.00 0.00 0.00 51 1015.1
20260505000510 68 144 2.0 5.0 0.00 0.00 0.00 50 1015.1
20260505000031 69 63 2.0 5.0 0.00 0.00 0.00 49 1015.0
20260504235503 69 150 2.0 7.0 0.00 0.00 0.00 49 1014.9
20260504235007 69 122 2.0 7.0 0.00 0.00 0.00 49 1014.9
20260504234518 70 98 1.0 6.0 0.00 0.00 0.00 49 1014.8
20260504234010 70 120 1.0 6.0 0.00 0.00 0.00 47 1014.8
20260504233512 71 96 1.0 5.0 0.00 0.00 0.00 47 1014.8
20260504233027 71 111 3.0 7.0 0.00 0.00 0.00 46 1014.7
20260504232510 71 122 4.0 7.0 0.00 0.00 0.00 44 1014.7
20260504232011 71 155 2.0 9.0 0.00 0.00 0.00 46 1014.7
20260504231513 71 181 4.0 9.0 0.00 0.00 0.00 44 1014.7
20260504231007 71 155 3.0 7.0 0.00 0.00 0.00 46 1014.6
20260504230508 72 164 4.0 8.0 0.00 0.00 0.00 45 1014.6
20260504230025 72 189 3.0 8.0 0.00 0.00 0.00 46 1014.5
20260504225510 72 154 1.0 11.0 0.00 0.00 0.00 47 1014.6
20260504225009 72 113 5.0 11.0 0.00 0.00 0.00 45 1014.6
20260504224531 72 191 2.0 7.0 0.00 0.00 0.00 46 1014.6
20260504224007 72 109 3.0 6.0 0.00 0.00 0.00 46 1014.6
20260504223509 72 161 1.0 6.0 0.00 0.00 0.00 46 1014.6
20260504223022 73 186 3.0 7.0 0.00 0.00 0.00 45 1014.5
20260504222510 73 156 2.0 11.0 0.00 0.00 0.00 45 1014.6
20260504222006 73 194 4.0 13.0 0.00 0.00 0.00 45 1014.6
20260504221525 74 205 4.0 13.0 0.00 0.00 0.00 44 1014.6
20260504221003 74 165 2.0 10.0 0.00 0.00 0.00 45 1014.6
20260504220503 73 136 2.0 8.0 0.00 0.00 0.00 44 1014.5
20260504220013 73 90 2.0 10.0 0.00 0.00 0.00 45 1014.4
20260504215510 74 199 4.0 10.0 0.00 0.00 0.00 43 1014.4
20260504215007 74 154 3.0 9.0 0.00 0.00 0.00 44 1014.4
20260504214535 74 150 3.0 8.0 0.00 0.00 0.00 44 1014.4
20260504214009 74 186 3.0 9.0 0.00 0.00 0.00 43 1014.4
20260504213509 74 123 1.0 9.0 0.00 0.00 0.00 44 1014.4
20260504213007 74 156 5.0 9.0 0.00 0.00 0.00 42 1014.4
20260504212504 75 122 4.0 9.0 0.00 0.00 0.00 43 1014.4
20260504212008 75 185 2.0 6.0 0.00 0.00 0.00 41 1014.4
20260504211518 75 222 3.0 6.0 0.00 0.00 0.00 41 1014.4